Hourly Weather Rudunki

Today, 16 April, Friday

Time Temperature Precipitation Wind Pressure Humidity
00:00 +2°C° 0 mm 2 mps 751 mmHg 99%
01:00 +2°C° 0 mm 3 mps 751 mmHg 99%
02:00 +2°C° 0.3 mm 3 mps 751 mmHg 99%
03:00 +2°C° 0.3 mm 3 mps 751 mmHg 99%
04:00 +2°C° 0.3 mm 3 mps 751 mmHg 99%
05:00 +2°C° 0.4 mm 3 mps 751 mmHg 99%
06:00 +2°C° 0.4 mm 3 mps 751 mmHg 99%
07:00 0°C° 0.4 mm 4 mps 751 mmHg 98%
08:00 0°C° 0.1 mm 4 mps 751 mmHg 98%
09:00 0°C° 0.1 mm 4 mps 752 mmHg 98%
10:00 +1°C° 0.1 mm 4 mps 752 mmHg 98%
11:00 +1°C° 0 mm 4 mps 752 mmHg 98%
12:00 +1°C° 0 mm 4 mps 752 mmHg 97%
13:00 +1°C° 0 mm 4 mps 752 mmHg 97%
14:00 +1°C° 0 mm 4 mps 752 mmHg 97%
15:00 +1°C° 0 mm 4 mps 752 mmHg 97%
16:00 +3°C° 0 mm 4 mps 752 mmHg 97%
17:00 +1°C° 0.5 mm 4 mps 752 mmHg 97%
18:00 +1°C° 0.5 mm 4 mps 752 mmHg 98%
19:00 +2°C° 0.5 mm 3 mps 752 mmHg 98%
20:00 +2°C° 0.6 mm 3 mps 752 mmHg 98%
21:00 +2°C° 0.6 mm 3 mps 752 mmHg 98%
22:00 +3°C° 0.6 mm 2 mps 752 mmHg 98%
23:00 +3°C° 0 mm 2 mps 752 mmHg 98%

Tomorrow, 17 April, Saturday

Time Temperature Precipitation Wind Pressure Humidity
00:00 +3°C° 0 mm 2 mps 752 mmHg 98%
01:00 +3°C° 0 mm 2 mps 752 mmHg 98%
02:00 +4°C° 0 mm 2 mps 752 mmHg 99%
03:00 +4°C° 0 mm 2 mps 752 mmHg 99%
04:00 +3°C° 0 mm 3 mps 751 mmHg 99%
05:00 +3°C° 0.4 mm 3 mps 751 mmHg 98%
06:00 +3°C° 0.4 mm 3 mps 752 mmHg 98%
07:00 +3°C° 0.4 mm 3 mps 752 mmHg 98%
08:00 +5°C° 0.1 mm 2 mps 752 mmHg 98%
09:00 +5°C° 0.1 mm 2 mps 752 mmHg 97%
10:00 +6°C° 0.1 mm 2 mps 752 mmHg 97%
11:00 +6°C° 0.1 mm 2 mps 752 mmHg 94%
12:00 +7°C° 0.1 mm 2 mps 752 mmHg 91%
13:00 +9°C° 0.1 mm 1 mps 752 mmHg 88%
14:00 +9°C° 0.1 mm 1 mps 752 mmHg 90%
15:00 +8°C° 0.1 mm 2 mps 752 mmHg 91%
16:00 +8°C° 0.1 mm 2 mps 752 mmHg 93%
17:00 +9°C° 0.1 mm 1 mps 752 mmHg 94%
18:00 +8°C° 0.1 mm 1 mps 752 mmHg 94%
19:00 +8°C° 0.1 mm 1 mps 752 mmHg 95%
20:00 +7°C° 0 mm 1 mps 752 mmHg 95%
21:00 +7°C° 0 mm 1 mps 752 mmHg 95%
22:00 +7°C° 0 mm 1 mps 752 mmHg 96%
23:00 +7°C° 0 mm 1 mps 752 mmHg 95%

Day after tomorrow, 18 April, Sunday

Time Temperature Precipitation Wind Pressure Humidity
00:00 +5°C° 0 mm 2 mps 752 mmHg 95%
01:00 +5°C° 0 mm 2 mps 752 mmHg 95%
02:00 +5°C° 0 mm 2 mps 752 mmHg 95%
03:00 +5°C° 0 mm 2 mps 752 mmHg 96%
04:00 +5°C° 0 mm 2 mps 752 mmHg 96%
05:00 +5°C° 0 mm 2 mps 752 mmHg 93%
06:00 +6°C° 0 mm 2 mps 753 mmHg 91%
07:00 +6°C° 0 mm 2 mps 753 mmHg 88%
08:00 +7°C° 0 mm 2 mps 753 mmHg 82%
09:00 +8°C° 0 mm 2 mps 753 mmHg 76%
10:00 +9°C° 0 mm 2 mps 753 mmHg 70%
11:00 +12°C° 0 mm 2 mps 752 mmHg 65%
12:00 +13°C° 0 mm 2 mps 752 mmHg 61%
13:00 +14°C° 0 mm 2 mps 752 mmHg 56%
14:00 +12°C° 0.1 mm 3 mps 752 mmHg 63%
15:00 +11°C° 0.1 mm 3 mps 752 mmHg 69%
16:00 +10°C° 0.1 mm 3 mps 752 mmHg 76%
17:00 +10°C° 0 mm 3 mps 752 mmHg 79%
18:00 +9°C° 0 mm 2 mps 752 mmHg 83%
19:00 +9°C° 0 mm 2 mps 752 mmHg 86%
20:00 +8°C° 0 mm 2 mps 752 mmHg 88%
21:00 +8°C° 0 mm 2 mps 752 mmHg 90%
22:00 +8°C° 0 mm 2 mps 752 mmHg 92%
23:00 +8°C° 0 mm 2 mps 752 mmHg 93%

19 April, Monday

Time Temperature Precipitation Wind Pressure Humidity
00:00 +7°C° 0 mm 2 mps 752 mmHg 94%
01:00 +7°C° 0 mm 2 mps 752 mmHg 96%
02:00 +7°C° 0 mm 2 mps 751 mmHg 95%
03:00 +7°C° 0 mm 2 mps 751 mmHg 94%
04:00 +7°C° 0 mm 2 mps 751 mmHg 93%
05:00 +8°C° 0 mm 2 mps 751 mmHg 90%
06:00 +8°C° 0 mm 3 mps 751 mmHg 88%
07:00 +9°C° 0 mm 3 mps 751 mmHg 85%
08:00 +10°C° 0.2 mm 4 mps 751 mmHg 79%
09:00 +11°C° 0.2 mm 4 mps 751 mmHg 73%
10:00 +12°C° 0.2 mm 5 mps 751 mmHg 67%
11:00 +13°C° 0.3 mm 5 mps 751 mmHg 65%
12:00 +13°C° 0.3 mm 6 mps 750 mmHg 63%
13:00 +13°C° 0.3 mm 6 mps 750 mmHg 61%
14:00 +13°C° 0.1 mm 6 mps 750 mmHg 61%
15:00 +13°C° 0.1 mm 6 mps 750 mmHg 60%
16:00 +13°C° 0.1 mm 6 mps 750 mmHg 59%
17:00 +10°C° 0 mm 6 mps 750 mmHg 63%
18:00 +9°C° 0 mm 6 mps 750 mmHg 67%
19:00 +7°C° 0 mm 5 mps 750 mmHg 71%
20:00 +7°C° 0 mm 5 mps 750 mmHg 70%
21:00 +7°C° 0 mm 5 mps 750 mmHg 68%
22:00 +7°C° 0 mm 4 mps 750 mmHg 67%
23:00 +7°C° 0 mm 4 mps 750 mmHg 66%

20 April, Tuesday

Time Temperature Precipitation Wind Pressure Humidity
00:00 +7°C° 0 mm 4 mps 750 mmHg 64%
01:00 +8°C° 0 mm 3 mps 750 mmHg 63%
02:00 +8°C° 0 mm 3 mps 750 mmHg 66%
03:00 +8°C° 0 mm 3 mps 750 mmHg 69%
04:00 +7°C° 0 mm 2 mps 750 mmHg 72%
05:00 +7°C° 0 mm 2 mps 750 mmHg 73%
06:00 +7°C° 0 mm 2 mps 750 mmHg 74%
07:00 +7°C° 0 mm 2 mps 750 mmHg 76%
08:00 +8°C° 0 mm 3 mps 750 mmHg 71%
09:00 +8°C° 0 mm 3 mps 750 mmHg 67%
10:00 +9°C° 0 mm 3 mps 750 mmHg 62%
11:00 +10°C° 0 mm 3 mps 750 mmHg 60%
12:00 +10°C° 0 mm 3 mps 749 mmHg 58%
13:00 +11°C° 0 mm 3 mps 749 mmHg 56%
14:00 +11°C° 0 mm 3 mps 749 mmHg 60%
15:00 +10°C° 0 mm 3 mps 749 mmHg 64%
16:00 +10°C° 0 mm 3 mps 749 mmHg 68%
17:00 +9°C° 0 mm 2 mps 749 mmHg 70%
18:00 +9°C° 0 mm 2 mps 749 mmHg 72%
19:00 +9°C° 0 mm 1 mps 749 mmHg 74%
20:00 +9°C° 0 mm 1 mps 749 mmHg 75%
21:00 +8°C° 0 mm 2 mps 749 mmHg 75%
22:00 +8°C° 0 mm 2 mps 748 mmHg 76%
23:00 +7°C° 0 mm 2 mps 748 mmHg 78%

21 April, Wednesday

Time Temperature Precipitation Wind Pressure Humidity
00:00 +7°C° 0 mm 2 mps 748 mmHg 80%
01:00 +7°C° 0 mm 3 mps 748 mmHg 82%
02:00 +5°C° 0 mm 3 mps 748 mmHg 84%
03:00 +5°C° 0 mm 3 mps 748 mmHg 87%
04:00 +4°C° 0 mm 3 mps 748 mmHg 89%
05:00 +6°C° 0 mm 2 mps 748 mmHg 85%
06:00 +7°C° 0 mm 2 mps 748 mmHg 82%
07:00 +7°C° 0 mm 2 mps 748 mmHg 78%
08:00 +9°C° 0.1 mm 3 mps 748 mmHg 71%
09:00 +10°C° 0.1 mm 3 mps 748 mmHg 64%
10:00 +12°C° 0.1 mm 3 mps 748 mmHg 56%
11:00 +12°C° 0.2 mm 4 mps 748 mmHg 57%
12:00 +12°C° 0.2 mm 4 mps 747 mmHg 57%
13:00 +12°C° 0.2 mm 4 mps 747 mmHg 57%
14:00 +12°C° 0.2 mm 4 mps 747 mmHg 58%
15:00 +12°C° 0.2 mm 4 mps 747 mmHg 59%
16:00 +12°C° 0.2 mm 4 mps 747 mmHg 59%
17:00 +11°C° 0.2 mm 4 mps 747 mmHg 65%
18:00 +10°C° 0.2 mm 3 mps 747 mmHg 71%
19:00 +9°C° 0.2 mm 3 mps 747 mmHg 76%
20:00 +8°C° 0 mm 3 mps 747 mmHg 77%
21:00 +8°C° 0 mm 3 mps 747 mmHg 78%
22:00 +7°C° 0 mm 3 mps 747 mmHg 79%
23:00 +5°C° 0 mm 3 mps 746 mmHg 80%
Show more